| time (UTC) | temp C | wind direction | speed KPH | gust KPH | rain 1hr cm | rain 24hr cm | rain mn cm | humidity % | barometer mb |
| 20260510190050 | 24 | 337 | 0.0 | 3.2 | 0.00 | 0.05 | 0.03 | 52 | 1012.3 |
| 20260510184540 | 25 | 255 | 0.0 | 4.8 | 0.00 | 0.08 | 0.03 | 50 | 1012.5 |
| 20260510183039 | 25 | 263 | 0.0 | 6.4 | 0.00 | 0.08 | 0.03 | 50 | 1012.4 |
| 20260510181538 | 25 | 130 | 0.0 | 4.8 | 0.00 | 0.08 | 0.03 | 48 | 1012.4 |
| 20260510180040 | 26 | 321 | 0.0 | 8.0 | 0.00 | 0.08 | 0.03 | 48 | 1012.3 |
| 20260510174539 | 26 | 292 | 0.0 | 8.0 | 0.00 | 0.08 | 0.03 | 46 | 1012.4 |
| 20260510173034 | 26 | 238 | 0.0 | 6.4 | 0.00 | 0.08 | 0.03 | 47 | 1012.4 |
| 20260510171534 | 26 | 180 | 0.0 | 4.8 | 0.00 | 0.08 | 0.03 | 49 | 1012.4 |
| 20260510170030 | 25 | 283 | 1.6 | 6.4 | 0.00 | 0.08 | 0.03 | 49 | 1012.6 |
| 20260510164525 | 24 | 229 | 0.0 | 4.8 | 0.00 | 0.08 | 0.03 | 53 | 1012.6 |
| 20260510163023 | 23 | 281 | 1.6 | 4.8 | 0.00 | 0.08 | 0.03 | 55 | 1012.7 |
| 20260510161520 | 23 | 250 | 0.0 | 3.2 | 0.00 | 0.08 | 0.03 | 58 | 1012.6 |
| 20260510160016 | 22 | 4 | 1.6 | 4.8 | 0.00 | 0.08 | 0.03 | 59 | 1012.8 |
| 20260510154513 | 21 | 337 | 0.0 | 6.4 | 0.00 | 0.08 | 0.03 | 64 | 1012.8 |
| 20260510153009 | 20 | 246 | 0.0 | 3.2 | 0.00 | 0.08 | 0.03 | 71 | 1013.1 |
| 20260510151503 | 19 | 234 | 0.0 | 3.2 | 0.00 | 0.08 | 0.03 | 73 | 1013.1 |
| 20260510150100 | 18 | 270 | 0.0 | 3.2 | 0.00 | 0.08 | 0.03 | 76 | 1013.2 |
| 20260510144556 | 17 | 316 | 0.0 | 3.2 | 0.00 | 0.08 | 0.03 | 80 | 1013.1 |
| 20260510143051 | 16 | 251 | 0.0 | 4.8 | 0.00 | 0.08 | 0.03 | 81 | 1013.2 |
| 20260510141549 | 16 | 328 | 0.0 | 1.6 | 0.00 | 0.08 | 0.03 | 84 | 1013.3 |
| 20260510140045 | 15 | 236 | 0.0 | 3.2 | 0.00 | 0.08 | 0.03 | 86 | 1013.3 |
| 20260510134543 | 14 | 115 | 0.0 | 3.2 | 0.00 | 0.08 | 0.03 | 87 | 1013.2 |
| 20260510133039 | 13 | 94 | 0.0 | 1.6 | 0.00 | 0.08 | 0.03 | 90 | 1013.1 |
| 20260510131535 | 13 | 240 | 0.0 | 1.6 | 0.00 | 0.08 | 0.03 | 91 | 1013.3 |
| 20260510130033 | 12 | 327 | 0.0 | 1.6 | 0.00 | 0.08 | 0.03 | 92 | 1013.4 |
| 20260510124535 | 12 | 338 | 0.0 | 1.6 | 0.00 | 0.08 | 0.03 | 93 | 1013.1 |
| 20260510123028 | 12 | 317 | 0.0 | 1.6 | 0.00 | 0.08 | 0.03 | 93 | 1012.9 |
| 20260510121526 | 11 | 293 | 0.0 | 1.6 | 0.00 | 0.08 | 0.03 | 94 | 1012.9 |
| 20260510120024 | 11 | 293 | 0.0 | 1.6 | 0.00 | 0.08 | 0.03 | 94 | 1012.8 |
| 20260510114522 | 11 | 293 | 0.0 | 1.6 | 0.00 | 0.08 | 0.03 | 94 | 1012.6 |
| 20260510113020 | 11 | 293 | 1.6 | 4.8 | 0.00 | 0.08 | 0.03 | 94 | 1012.6 |
| 20260510111518 | 11 | 27 | 0.0 | 4.8 | 0.00 | 0.08 | 0.03 | 94 | 1012.4 |
| 20260510110029 | 10 | 320 | 0.0 | 1.6 | 0.00 | 0.08 | 0.03 | 95 | 1012.0 |
| 20260510104513 | 10 | 304 | 0.0 | 3.2 | 0.00 | 0.08 | 0.03 | 95 | 1012.1 |
| 20260510103018 | 10 | 345 | 0.0 | 0.0 | 0.00 | 0.08 | 0.03 | 95 | 1011.5 |
| 20260510101511 | 10 | 345 | 0.0 | 1.6 | 0.00 | 0.08 | 0.03 | 95 | 1011.8 |
| 20260510100011 | 10 | 321 | 0.0 | 1.6 | 0.00 | 0.08 | 0.03 | 95 | 1011.8 |
| 20260510094509 | 10 | 318 | 0.0 | 3.2 | 0.03 | 0.08 | 0.03 | 95 | 1011.5 |
| 20260510093008 | 10 | 306 | 0.0 | 1.6 | 0.03 | 0.08 | 0.03 | 94 | 1011.4 |
| 20260510091508 | 10 | 324 | 0.0 | 4.8 | 0.03 | 0.08 | 0.03 | 94 | 1011.5 |
| 20260510090007 | 10 | 18 | 0.0 | 4.8 | 0.03 | 0.08 | 0.03 | 95 | 1011.2 |
| 20260510084506 | 10 | 357 | 0.0 | 0.0 | 0.00 | 0.05 | 0.00 | 95 | 1010.9 |
| 20260510083005 | 10 | 357 | 0.0 | 0.0 | 0.00 | 0.05 | 0.00 | 95 | 1010.8 |
| 20260510081505 | 10 | 357 | 0.0 | 0.0 | 0.00 | 0.05 | 0.00 | 95 | 1010.9 |
| 20260510074502 | 9 | 8 | 0.0 | 1.6 | 0.00 | 0.05 | 0.00 | 95 | 1010.7 |
| 20260510073100 | 8 | 8 | 0.0 | 0.0 | 0.00 | 0.05 | 0.00 | 94 | 1010.5 |
| 20260510071559 | 8 | 8 | 0.0 | 0.0 | 0.00 | 0.05 | 0.00 | 94 | 1010.3 |
| 20260510070058 | 8 | 8 | 0.0 | 0.0 | 0.00 | 0.05 | 0.00 | 94 | 1010.2 |
| 20260510064606 | 8 | 8 | 0.0 | 0.0 | 0.00 | 0.05 | 0.00 | 94 | 1010.2 |
| 20260510063055 | 9 | 8 | 0.0 | 0.0 | 0.00 | 0.05 | 0.00 | 94 | 1010.3 |
| 20260510061557 | 9 | 8 | 0.0 | 0.0 | 0.00 | 0.05 | 0.00 | 94 | 1010.4 |
| 20260510060052 | 9 | 8 | 0.0 | 0.0 | 0.00 | 0.05 | 0.00 | 94 | 1010.4 |
| 20260510054551 | 9 | 8 | 0.0 | 0.0 | 0.00 | 0.05 | 0.00 | 93 | 1010.6 |
| 20260510053048 | 9 | 8 | 0.0 | 0.0 | 0.00 | 0.05 | 0.00 | 93 | 1010.6 |
| 20260510051547 | 10 | 8 | 0.0 | 0.0 | 0.00 | 0.05 | 0.00 | 93 | 1010.7 |
| 20260510050045 | 10 | 8 | 0.0 | 0.0 | 0.00 | 0.05 | 0.00 | 93 | 1010.9 |
| 20260510044602 | 10 | 8 | 0.0 | 0.0 | 0.00 | 0.05 | 0.00 | 93 | 1010.8 |
| 20260510043042 | 10 | 8 | 0.0 | 0.0 | 0.00 | 0.05 | 0.00 | 93 | 1011.0 |
| 20260510041541 | 10 | 8 | 0.0 | 0.0 | 0.00 | 0.05 | 0.00 | 93 | 1011.1 |
| 20260510040038 | 10 | 8 | 0.0 | 0.0 | 0.00 | 0.05 | 0.00 | 93 | 1011.1 |
| 20260510034537 | 10 | 8 | 0.0 | 0.0 | 0.00 | 0.05 | 0.05 | 93 | 1011.0 |
| 20260510033035 | 10 | 8 | 0.0 | 0.0 | 0.00 | 0.05 | 0.05 | 92 | 1010.7 |
| 20260510031537 | 10 | 8 | 0.0 | 0.0 | 0.00 | 0.05 | 0.05 | 92 | 1010.6 |
| 20260510030038 | 10 | 8 | 0.0 | 0.0 | 0.00 | 0.05 | 0.05 | 92 | 1010.4 |
| 20260510024537 | 11 | 8 | 0.0 | 0.0 | 0.00 | 0.05 | 0.05 | 92 | 1010.6 |
| 20260510023031 | 11 | 8 | 0.0 | 0.0 | 0.00 | 0.05 | 0.05 | 92 | 1010.5 |
| 20260510021533 | 11 | 8 | 0.0 | 0.0 | 0.00 | 0.05 | 0.05 | 91 | 1010.5 |
| 20260510020030 | 11 | 8 | 0.0 | 0.0 | 0.00 | 0.05 | 0.05 | 91 | 1010.3 |
| 20260510014528 | 11 | 8 | 0.0 | 0.0 | 0.00 | 0.05 | 0.05 | 91 | 1010.3 |
| 20260510013026 | 11 | 8 | 0.0 | 0.0 | 0.00 | 0.05 | 0.05 | 90 | 1010.4 |
| 20260510011524 | 11 | 8 | 0.0 | 0.0 | 0.00 | 0.05 | 0.05 | 89 | 1010.3 |
| 20260510010022 | 12 | 8 | 0.0 | 0.0 | 0.00 | 0.05 | 0.05 | 89 | 1010.1 |
| 20260510004520 | 12 | 8 | 0.0 | 0.0 | 0.00 | 0.05 | 0.05 | 88 | 1010.1 |
| 20260510003024 | 12 | 8 | 0.0 | 0.0 | 0.00 | 0.05 | 0.05 | 87 | 1010.2 |
| 20260510001519 | 13 | 8 | 0.0 | 0.0 | 0.00 | 0.05 | 0.05 | 86 | 1010.1 |
| 20260510000018 | 13 | 8 | 0.0 | 0.0 | 0.00 | 0.05 | 0.05 | 85 | 1010.0 |
| 20260509234518 | 13 | 8 | 0.0 | 0.0 | 0.00 | 0.05 | 0.05 | 84 | 1010.1 |
| 20260509233023 | 14 | 8 | 0.0 | 0.0 | 0.00 | 0.05 | 0.05 | 83 | 1009.9 |
| 20260509231517 | 15 | 8 | 0.0 | 0.0 | 0.00 | 0.05 | 0.05 | 83 | 1009.7 |
| 20260509230018 | 15 | 11 | 0.0 | 1.6 | 0.00 | 0.05 | 0.05 | 83 | 1009.6 |
| 20260509224514 | 15 | 10 | 0.0 | 1.6 | 0.00 | 0.05 | 0.05 | 83 | 1009.8 |
| 20260509223016 | 15 | 10 | 0.0 | 1.6 | 0.00 | 0.05 | 0.05 | 83 | 1009.9 |
| 20260509221612 | 15 | 9 | 0.0 | 1.6 | 0.03 | 0.05 | 0.05 | 84 | 1010.0 |
| 20260509220011 | 15 | 34 | 0.0 | 1.6 | 0.03 | 0.05 | 0.05 | 83 | 1010.1 |
| 20260509214510 | 15 | 306 | 0.0 | 1.6 | 0.03 | 0.05 | 0.05 | 82 | 1010.3 |
| 20260509213009 | 15 | 299 | 0.0 | 0.0 | 0.03 | 0.05 | 0.05 | 78 | 1010.2 |
| 20260509211508 | 16 | 317 | 1.6 | 6.4 | 0.00 | 0.03 | 0.03 | 74 | 1010.5 |
| 20260509210008 | 16 | 321 | 0.0 | 4.8 | 0.00 | 0.03 | 0.03 | 73 | 1010.2 |
| 20260509204507 | 16 | 273 | 0.0 | 4.8 | 0.00 | 0.03 | 0.03 | 72 | 1010.2 |
| 20260509203007 | 16 | 325 | 0.0 | 6.4 | 0.00 | 0.03 | 0.03 | 75 | 1010.0 |
| 20260509201504 | 16 | 30 | 1.6 | 8.0 | 0.00 | 0.03 | 0.03 | 75 | 1009.8 |
| 20260509200004 | 16 | 31 | 1.6 | 11.3 | 0.00 | 0.03 | 0.03 | 76 | 1009.8 |
| 20260509194502 | 16 | 304 | 0.0 | 4.8 | 0.00 | 0.03 | 0.03 | 76 | 1009.8 |
| 20260509193136 | 16 | 282 | 0.0 | 4.8 | 0.00 | 0.03 | 0.03 | 78 | 1010.1 |
| 20260509191615 | 15 | 323 | 0.0 | 4.8 | 0.03 | 0.03 | 0.03 | 80 | 1010.2 |